475  
ASUS43 KJKL 271210  
RWRJKL  
 
EAST KENTUCKY HOURLY WEATHER ROUNDUP  
NATIONAL WEATHER SERVICE JACKSON KY  
800 AM EDT TUE OCT 27 2020  
 
NOTE: "FAIR" INDICATES FEW OR NO CLOUDS BELOW 12,000 FEET WITH  
NO SIGNIFICANT WEATHER AND/OR S TO VISIBILITY
.  
 
* THESE REPORTS ARE NOT UNDER NWS QUALITY CONTROL AND MAY NOT  
REPORT WEATHER SUCH AS PRECIPITATION AND FOG.
 
 
KYZ079-080-083-085-087-088-110-112-115-119-120-271300   
..EASTERN KENTUCKY
 
 
 
CITY SKY/WX TMP DP RH WIND PRES REMARKS
 
JACKSON CLOUDY 51 49 92 CALM 30.22F FOG  
6HR MIN TEMP: 51; 6HR MAX TEMP: 52;  
 
LONDON CLOUDY 53 52 96 NE6 30.21S  
6HR MIN TEMP: 53; 6HR MAX TEMP: 54;  
 
SOMERSET* CLOUDY 52 46 82 NE3 30.22F  
MONTICELLO* CLOUDY 54 54 100 VRB3 30.23S  
6HR MIN TEMP: 52; 6HR MAX TEMP: 54;  
 
WILLIAMSBURG* CLOUDY 54 54 100 CALM 30.21S  
MIDDLESBORO* CLOUDY 56 56 100 CALM 30.22R  
6HR MIN TEMP: 56; 6HR MAX TEMP: 58;  
 
HARLAN APT* CLOUDY 56 54 94 CALM 30.21S  
PIKE CO APT* FOG 51 51 100 N5 30.23S VSB<1/4  
BIG SANDY APT* CLOUDY 50 50 100 NE5 30.24S FOG  
6HR MIN TEMP: 50; 6HR MAX TEMP: 53;  
 
MOREHEAD APT* CLOUDY 48 46 93 CALM 30.25S  
ASHLAND* CLOUDY 49 49 100 CALM 30.26S  

 
 
KYZ035-036-041-042-044-050-067-078-099-271300   
..CENTRAL KENTUCKY
 
 
 
CITY SKY/WX TMP DP RH WIND PRES REMARKS
 
MT STERLING* CLOUDY 48 46 93 E5 30.25S  
FLEMING/MASON* CLOUDY 45 45 99 E3 30.25F  
DANVILLE* CLOUDY 46 46 100 E3 30.23F FOG  
RICHMOND* CLOUDY 50 48 93 E3 30.23S  
LEXINGTON CLOUDY 48 44 86 NE6 30.23S  
6HR MIN TEMP: 47; 6HR MAX TEMP: 48;  
 
FRANKFORT CLOUDY 49 44 83 NE3 30.23S  
6HR MIN TEMP: 48; 6HR MAX TEMP: 50;  
 
LOUISVILLE CLOUDY 50 45 83 NE5 30.24R  
6HR MIN TEMP: 49; 6HR MAX TEMP: 50; 6HR PCP: TRACE;  
 
LEBANON* PTSUNNY 48 48 100 CALM 30.23S  
GLASGOW* CLOUDY 49 48 95 E6 30.21S  
BOWLING GREEN CLOUDY 51 47 86 NE6 30.21F  
6HR MIN TEMP: 51; 6HR MAX TEMP: 54;  
 

 
 
KYZ091>093-OHZ055-061-077-WVZ005-015-034-035-042-271300   
..SOUTHERN OHIO/WEST VIRGINIA
 
 
 
CITY SKY/WX TMP DP RH WIND PRES REMARKS
 
COVINGTON CLOUDY 47 42 83 NE8 30.24S  
COLUMBUS CLOUDY 46 44 93 CALM 30.26R  
DAYTON CLOUDY 45 43 93 NE5 30.27F  
WILMINGTON CLOUDY 45 42 89 NE5 30.25F FOG  
HUNTINGTON N/A N/A N/A N/A MISG 30.23F  
CHARLESTON CLOUDY 50 49 96 NE5 30.24S  
PINEVILLE* CLOUDY 58 56 91 MISG 30.25S  
BECKLEY FOG 53 53 100 N3 30.22R VSB<1/4  
BLUEFIELD FOG 53 53 100 SE3 30.23S VSB 1/2  
LOGAN CO APT* FOG 52 52 100 MISG 30.23S VSB<1/4  

 
 
VAZ002-007-008-TNZ017-027-036-066-071-271300   
..SOUTHWEST VIRGINIA/EAST TENNESSEE
 
 
 
CITY SKY/WX TMP DP RH WIND PRES REMARKS
 
WISE* CLOUDY 54 54 100 CALM 30.24S FOG  
ABINGDON* CLEAR 55 54 96 CALM 30.22R  
BRISTOL PTCLDY 56 56 100 N5 30.20R  
MORRISTOWN* CLOUDY 55 55 100 CALM 30.18S  
SEVIERVILLE* PTSUNNY 57 55 94 CALM 30.18S FOG  
KNOXVILLE PTCLDY 57 56 96 CALM 30.17S  
LAFOLLETTE* PTSUNNY 52 52 100 CALM 30.23S  
OAK RIDGE PTCLDY 55 53 93 CALM 30.21  
CROSSVILLE FOG 51 49 92 CALM 30.20R VSB 1  
NASHVILLE CLOUDY 57 51 80 NE3 30.20S  

 
   
..KEY TO REMARKS
 
 
VSB - VISIBILITY IN MILES  
WCI - WIND CHILL INDEX  
HX - HEAT INDEX  
 

 
 
 
CLICK HERE TO GO TO PREVIOUS BULLETINS.

The Nexlab KY Page Main Text Page